Location: Leeds
(37.2390°N, 113.3580°W)
Time: 15:48:33
(UTC-06:00)

ISS - All Passes

Search period start: 31 August 2015 00:00
Search period end: 10 September 2015 00:00
Orbit: 400 x 402 km, 51.6° (Epoch: 31 August)

Date Brightness Start Highest point End Pass type
(mag) Time Alt. Az. Time Alt. Az. Time Alt. Az.
31 Aug - 09:28:37 10° SW 09:31:47 53° SE 09:34:59 10° ENE daylight
31 Aug - 11:06:02 10° WNW 11:08:25 18° NNW 11:10:48 10° NNE daylight
31 Aug - 15:58:05 10° NNW 16:00:58 29° NNE 16:03:52 10° E daylight
31 Aug - 17:34:34 10° WNW 17:37:20 25° SW 17:40:04 10° S daylight
01 Sep - 08:35:57 10° S 08:38:38 24° SE 08:41:22 10° ENE daylight
01 Sep - 10:12:03 10° W 10:14:58 30° NNW 10:17:54 10° NNE daylight
01 Sep - 15:05:12 10° NNW 15:07:30 18° NNE 15:09:52 10° ENE daylight
01 Sep - 16:40:58 10° WNW 16:44:10 56° SW 16:47:21 10° SE daylight
02 Sep - 07:44:18 10° SSE 07:45:30 12° SE 07:46:51 10° ESE daylight
02 Sep - 09:18:23 10° WSW 09:21:36 57° NW 09:24:49 10° NE daylight
02 Sep - 10:57:20 10° NW 10:58:36 12° NNW 10:59:48 10° N daylight
02 Sep - 14:12:31 10° N 14:13:57 12° NNE 14:15:26 10° NE daylight
02 Sep - 15:47:40 10° NW 15:50:54 66° NE 15:54:07 10° ESE daylight
02 Sep - 17:26:23 10° WSW 17:26:57 10° SW 17:27:22 10° SW daylight
03 Sep - 08:25:05 10° SW 08:28:18 65° SE 08:31:32 10° NE daylight
03 Sep - 10:02:46 10° WNW 10:05:01 17° NNW 10:07:12 10° NNE daylight
03 Sep - 14:54:32 10° NNW 14:57:31 33° NNE 15:00:31 10° E daylight
03 Sep - 16:31:14 10° W 16:33:48 21° SW 16:36:19 10° S daylight
04 Sep - 07:32:13 10° SSW 07:35:04 29° SE 07:37:57 10° ENE daylight
04 Sep - 09:08:39 10° W 09:11:28 26° NNW 09:14:17 10° NNE daylight
04 Sep - 14:01:32 10° NNW 14:04:01 20° NNE 14:06:31 10° ENE daylight
04 Sep - 15:37:28 10° WNW 15:40:36 46° SW 15:43:42 10° SSE daylight
05 Sep - 06:40:07 10° SSE 06:41:52 14° SE 06:43:44 10° E visible
05 Sep - 08:14:51 10° WSW 08:18:00 48° NW 08:21:11 10° NE daylight
05 Sep - 09:54:11 10° NW 09:55:05 11° NNW 09:55:55 10° N daylight
05 Sep - 13:08:44 10° N 13:10:24 13° NNE 13:12:08 10° NE daylight
05 Sep - 14:44:02 10° NW 14:47:17 79° NE 14:50:32 10° SE daylight
06 Sep - 07:21:23 10° SW 07:24:37 79° SE 07:27:53 10° NE daylight
06 Sep - 08:59:21 10° WNW 09:01:24 15° NNW 09:03:24 10° NNE daylight
06 Sep - 13:50:48 10° NW 13:53:52 38° NE 13:56:55 10° ESE daylight
06 Sep - 15:27:45 10° W 15:30:06 18° SW 15:32:22 10° S daylight
07 Sep - 06:28:20 10° SSW 06:31:19 34° SE 06:34:20 10° ENE visible
07 Sep - 08:05:04 10° W 08:07:47 23° NNW 08:10:29 10° NNE daylight
07 Sep - 12:57:42 10° NNW 13:00:19 22° NNE 13:02:58 10° E daylight
07 Sep - 14:33:47 10° WNW 14:36:50 38° SW 14:39:51 10° SSE daylight
08 Sep - 05:35:56 10° S 05:38:03 17° SE 05:40:15 10° E visible
08 Sep - 07:11:09 10° WSW 07:14:14 41° NW 07:17:21 10° NE daylight
08 Sep - 08:51:10 10° NNW 08:51:22 10° NNW 08:51:30 10° NNW daylight
08 Sep - 12:04:47 10° NNW 12:06:40 15° NNE 12:08:37 10° ENE daylight
08 Sep - 13:40:13 10° NW 13:43:29 87° SW 13:46:43 10° SE daylight
09 Sep - 06:17:32 10° SW 06:20:47 87° NW 06:24:02 10° NE visible
09 Sep - 07:55:46 10° WNW 07:57:36 14° NNW 07:59:25 10° N daylight
09 Sep - 11:12:22 10° N 11:12:56 10° NNE 11:13:32 10° NNE daylight
09 Sep - 12:46:53 10° NW 12:50:02 44° NE 12:53:09 10° ESE daylight
09 Sep - 14:24:08 10° W 14:26:11 15° SW 14:28:09 10° SSW daylight
